Time,TemperatureF,DewpointF,PressureIn,WindDirection,WindDirectionDegrees,WindSpeedMPH,WindSpeedGustMPH,Humidity,HourlyPrecipIn,Conditions,Clouds,dailyrainin,SoftwareType,DateUTC
2013-06-07 00:01:00,70.5,69.9,29.84,North,0,1.6,1.6,98,0.00,RA,SKC,0.00,WeatherDisplay:10.37,2013-06-07 04:01:00,
2013-06-07 00:02:00,70.5,69.9,29.84,North,0,1.6,1.6,98,0.00,RA,SKC,0.00,WeatherDisplay:10.37,2013-06-07 04:02:00,
2013-06-07 00:03:00,70.5,69.9,29.84,North,0,1.1,0.0,98,0.00,RA,SKC,0.00,WeatherDisplay:10.37,2013-06-07 04:03:00,
2013-06-07 00:04:00,70.5,69.9,29.84,North,0,1.1,0.0,98,0.00,RA,SKC,0.00,WeatherDisplay:10.37,2013-06-07 04:04:00,
2013-06-07 00:09:00,70.5,69.9,29.84,North,0,1.6,1.6,98,0.00,RA,SKC,0.00,WeatherDisplay:10.37,2013-06-07 04:09:00,
2013-06-07 00:14:00,70.5,69.9,29.84,North,0,2.3,2.3,98,0.00,CLR,SKC,0.00,WeatherDisplay:10.37,2013-06-07 04:14:00,
2013-06-07 00:16:00,70.5,69.9,29.84,North,0,2.3,2.3,98,0.00,CLR,SKC,0.00,WeatherDisplay:10.37,2013-06-07 04:16:00,
2013-06-07 00:21:00,70.5,69.9,29.84,North,0,2.3,2.3,98,0.00,CLR,SKC,0.00,WeatherDisplay:10.37,2013-06-07 04:21:00,
2013-06-07 00:26:00,70.7,70.1,29.84,North,0,1.6,1.6,98,0.00,CLR,SKC,0.00,WeatherDisplay:10.37,2013-06-07 04:26:00,
2013-06-07 00:32:00,70.7,70.1,29.84,NNW,338,2.3,2.3,98,0.00,CLR,SKC,0.00,WeatherDisplay:10.37,2013-06-07 04:32:00,
2013-06-07 00:37:00,70.7,70.1,29.83,North,0,1.6,0.0,98,0.00,CLR,SKC,0.00,WeatherDisplay:10.37,2013-06-07 04:37:00,
2013-06-07 00:42:00,70.7,70.1,29.83,North,0,3.5,3.5,98,0.00,CLR,SKC,0.00,WeatherDisplay:10.37,2013-06-07 04:42:00,
2013-06-07 00:47:00,70.7,70.1,29.83,North,0,3.5,3.5,98,0.00,CLR,SKC,0.00,WeatherDisplay:10.37,2013-06-07 04:47:00,
2013-06-07 00:52:00,70.9,70.3,29.83,North,0,3.5,3.5,98,0.00,CLR,SKC,0.00,WeatherDisplay:10.37,2013-06-07 04:52:00,
2013-06-07 00:57:00,70.9,70.3,29.83,NE,45,3.5,3.5,98,0.00,CLR,SKC,0.00,WeatherDisplay:10.37,2013-06-07 04:57:00,
2013-06-07 01:02:00,70.9,70.3,29.83,North,0,4.5,4.5,98,0.00,CLR,SKC,0.00,WeatherDisplay:10.37,2013-06-07 05:02:00,
2013-06-07 01:07:00,70.9,70.3,29.83,NW,315,3.5,3.5,98,0.00,CLR,SKC,0.00,WeatherDisplay:10.37,2013-06-07 05:07:00,
2013-06-07 01:12:00,71.1,70.5,29.83,WNW,292,5.8,5.8,98,0.00,CLR,SKC,0.00,WeatherDisplay:10.37,2013-06-07 05:12:00,
2013-06-07 01:17:00,71.1,70.5,29.82,NNW,338,3.5,3.5,98,0.00,CLR,SKC,0.00,WeatherDisplay:10.37,2013-06-07 05:17:00,
2013-06-07 01:22:00,71.1,70.5,29.82,NNW,338,3.8,3.8,98,0.00,CLR,SKC,0.00,WeatherDisplay:10.37,2013-06-07 05:22:00,
2013-06-07 01:27:00,71.2,70.6,29.82,North,0,8.1,8.1,98,0.01,RA,SKC,0.01,WeatherDisplay:10.37,2013-06-07 05:27:00,
2013-06-07 01:32:00,71.2,70.6,29.82,North,0,4.6,4.6,98,0.01,RA,SKC,0.01,WeatherDisplay:10.37,2013-06-07 05:32:00,
2013-06-07 01:37:00,71.2,70.6,29.82,NNW,338,4.6,4.6,98,0.01,,SKC,0.01,WeatherDisplay:10.37,2013-06-07 05:37:00,
2013-06-07 01:42:00,71.2,70.6,29.81,North,0,3.8,3.8,98,0.01,CLR,SKC,0.01,WeatherDisplay:10.37,2013-06-07 05:42:00,
2013-06-07 01:48:00,71.2,70.6,29.81,NNW,338,3.8,3.8,98,0.02,RA,SKC,0.02,WeatherDisplay:10.37,2013-06-07 05:48:00,
2013-06-07 01:53:00,71.2,70.6,29.81,North,0,5.8,5.8,98,0.02,RA,SKC,0.02,WeatherDisplay:10.37,2013-06-07 05:53:00,
2013-06-07 01:58:00,71.2,70.6,29.80,NNW,338,4.5,4.5,98,0.04,RA,SKC,0.04,WeatherDisplay:10.37,2013-06-07 05:58:00,
2013-06-07 02:03:00,71.2,70.6,29.80,North,0,3.8,3.8,98,0.04,RA,SKC,0.04,WeatherDisplay:10.37,2013-06-07 06:03:00,
2013-06-07 02:08:00,71.2,70.6,29.80,North,0,3.8,3.8,98,0.04,CLR,SKC,0.04,WeatherDisplay:10.37,2013-06-07 06:08:00,
2013-06-07 02:13:00,71.1,70.5,29.80,NE,45,2.3,2.3,98,0.05,RA,SKC,0.05,WeatherDisplay:10.37,2013-06-07 06:13:00,
2013-06-07 02:18:00,71.1,70.5,29.79,NNW,338,2.3,2.3,98,0.05,RA,SKC,0.05,WeatherDisplay:10.37,2013-06-07 06:18:00,
2013-06-07 02:23:00,71.1,70.5,29.79,NW,315,3.5,3.5,98,0.06,RA,SKC,0.06,WeatherDisplay:10.37,2013-06-07 06:23:00,
2013-06-07 02:28:00,71.1,70.5,29.79,NW,315,3.5,3.5,98,0.06,RA,SKC,0.07,WeatherDisplay:10.37,2013-06-07 06:28:00,
2013-06-07 02:33:00,70.9,70.3,29.78,North,0,3.1,3.1,98,0.06,RA,SKC,0.07,WeatherDisplay:10.37,2013-06-07 06:33:00,
2013-06-07 02:38:00,70.9,70.3,29.78,NE,45,3.5,3.5,98,0.06,RA,SKC,0.07,WeatherDisplay:10.37,2013-06-07 06:38:00,
2013-06-07 02:43:00,70.9,70.3,29.77,East,90,3.5,3.5,98,0.07,RA,SKC,0.08,WeatherDisplay:10.37,2013-06-07 06:43:00,
2013-06-07 02:48:00,70.9,70.3,29.77,NE,45,2.3,0.0,98,0.06,RA,SKC,0.08,WeatherDisplay:10.37,2013-06-07 06:48:00,
2013-06-07 02:53:00,70.7,70.1,29.76,East,90,1.1,0.0,98,0.06,CLR,SKC,0.08,WeatherDisplay:10.37,2013-06-07 06:53:00,
2013-06-07 02:58:00,70.7,70.1,29.76,North,0,2.3,2.3,98,0.05,CLR,SKC,0.08,WeatherDisplay:10.37,2013-06-07 06:58:00,
2013-06-07 03:03:00,70.7,70.1,29.76,North,0,2.3,2.3,98,0.05,CLR,SKC,0.08,WeatherDisplay:10.37,2013-06-07 07:03:00,
2013-06-07 03:08:00,70.5,69.9,29.76,East,90,2.3,2.3,98,0.06,RA,SKC,0.09,WeatherDisplay:10.37,2013-06-07 07:08:00,
2013-06-07 03:13:00,70.5,69.9,29.76,NW,315,1.6,1.6,98,0.05,RA,SKC,0.09,WeatherDisplay:10.37,2013-06-07 07:13:00,
2013-06-07 03:18:00,70.5,69.9,29.75,ENE,68,3.5,3.5,98,0.05,,SKC,0.09,WeatherDisplay:10.37,2013-06-07 07:18:00,
2013-06-07 03:23:00,70.3,69.7,29.75,North,0,1.6,1.6,98,0.05,RA,SKC,0.11,WeatherDisplay:10.37,2013-06-07 07:23:00,
2013-06-07 03:28:00,70.3,69.7,29.75,NW,315,5.8,5.8,98,0.05,RA,SKC,0.12,WeatherDisplay:10.37,2013-06-07 07:28:00,
2013-06-07 03:33:00,70.3,69.7,29.74,South,180,4.6,4.6,98,0.07,RA,SKC,0.15,WeatherDisplay:10.37,2013-06-07 07:33:00,
2013-06-07 03:38:00,70.3,69.7,29.74,SE,135,3.5,3.5,98,0.09,RA,SKC,0.17,WeatherDisplay:10.37,2013-06-07 07:38:00,
2013-06-07 06:42:00,69.6,69.3,29.67,East,90,1.2,0.0,99,0.79,CLR,SKC,1.46,WeatherDisplay:10.37,2013-06-07 10:42:00,
2013-06-07 06:47:00,69.6,69.3,29.67,SE,135,3.5,3.5,99,0.76,RA,SKC,1.50,WeatherDisplay:10.37,2013-06-07 10:47:00,
2013-06-07 06:52:00,69.8,69.2,29.68,SE,135,4.6,6.0,98,0.77,RA,SKC,1.54,WeatherDisplay:10.37,2013-06-07 10:52:00,
2013-06-07 06:57:00,69.8,69.2,29.68,South,180,3.5,3.5,98,0.94,RA,SKC,1.71,WeatherDisplay:10.37,2013-06-07 10:57:00,
2013-06-07 07:02:00,69.8,69.2,29.67,SE,135,3.5,3.5,98,0.79,RA,SKC,1.82,WeatherDisplay:10.37,2013-06-07 11:02:00,
2013-06-07 07:07:00,69.8,69.2,29.67,NW,315,5.8,5.8,98,0.83,RA,SKC,1.84,WeatherDisplay:10.37,2013-06-07 11:07:00,
2013-06-07 07:12:00,69.8,69.2,29.65,South,180,3.5,3.5,98,0.85,RA,SKC,1.87,WeatherDisplay:10.37,2013-06-07 11:12:00,
2013-06-07 07:17:00,70.0,69.4,29.65,North,0,3.5,3.5,98,0.57,RA,SKC,1.88,WeatherDisplay:10.37,2013-06-07 11:17:00,
2013-06-07 07:22:00,69.8,69.2,29.65,NW,315,5.8,5.8,98,0.61,RA,SKC,1.93,WeatherDisplay:10.37,2013-06-07 11:22:00,
2013-06-07 07:27:00,70.0,69.4,29.65,WNW,292,5.8,5.8,98,0.63,RA,SKC,1.94,WeatherDisplay:10.37,2013-06-07 11:27:00,
2013-06-07 07:32:00,70.0,69.4,29.64,North,0,3.5,3.5,98,0.53,RA,SKC,2.00,WeatherDisplay:10.37,2013-06-07 11:32:00,
2013-06-07 07:37:00,70.0,69.4,29.65,NW,315,4.6,4.6,98,0.54,RA,SKC,2.01,WeatherDisplay:10.37,2013-06-07 11:37:00,
2013-06-07 07:42:00,70.0,69.4,29.65,WNW,292,3.5,3.5,98,0.57,RA,SKC,2.03,WeatherDisplay:10.37,2013-06-07 11:42:00,
2013-06-07 07:47:00,70.2,69.6,29.66,NW,315,3.5,3.5,98,0.57,RA,SKC,2.08,WeatherDisplay:10.37,2013-06-07 11:47:00,
2013-06-07 07:52:00,70.2,69.6,29.66,North,0,3.5,3.5,98,0.70,RA,SKC,2.22,WeatherDisplay:10.37,2013-06-07 11:52:00,
2013-06-07 07:58:00,70.7,70.1,29.65,South,180,2.3,2.3,98,0.56,RA,SKC,2.27,WeatherDisplay:10.37,2013-06-07 11:58:00,
2013-06-07 08:03:00,70.7,70.1,29.65,NW,315,1.1,1.1,98,0.45,RA,SKC,2.28,WeatherDisplay:10.37,2013-06-07 12:03:00,
2013-06-07 08:08:00,70.9,70.3,29.64,North,0,1.1,0.0,98,0.44,RA,SKC,2.29,WeatherDisplay:10.37,2013-06-07 12:08:00,
2013-06-07 08:13:00,70.9,70.3,29.64,North,0,3.5,3.5,98,0.44,RA,SKC,2.30,WeatherDisplay:10.37,2013-06-07 12:13:00,
2013-06-07 08:18:00,71.1,70.5,29.65,North,0,3.5,3.5,98,0.44,RA,SKC,2.31,WeatherDisplay:10.37,2013-06-07 12:18:00,
2013-06-07 08:23:00,71.2,70.6,29.64,North,0,2.3,2.3,98,0.40,RA,SKC,2.33,WeatherDisplay:10.37,2013-06-07 12:23:00,
2013-06-07 08:28:00,71.6,70.7,29.64,North,0,3.5,3.5,97,0.40,RA,SKC,2.34,WeatherDisplay:10.37,2013-06-07 12:28:00,
2013-06-07 08:33:00,72.0,71.1,29.64,North,0,3.5,3.5,97,0.34,RA,SKC,2.34,WeatherDisplay:10.37,2013-06-07 12:33:00,
2013-06-07 08:38:00,72.3,71.4,29.63,NNW,338,3.5,3.5,97,0.32,CLR,SKC,2.34,WeatherDisplay:10.37,2013-06-07 12:38:00,
2013-06-07 08:43:00,72.7,71.8,29.64,North,0,2.3,2.3,97,0.31,CLR,SKC,2.34,WeatherDisplay:10.37,2013-06-07 12:43:00,
2013-06-07 08:48:00,73.2,72.3,29.63,North,0,3.5,3.5,97,0.24,CLR,SKC,2.34,WeatherDisplay:10.37,2013-06-07 12:48:00,
2013-06-07 08:53:00,73.9,73.6,29.63,North,0,3.5,0.0,99,0.12,CLR,SKC,2.34,WeatherDisplay:10.37,2013-06-07 12:53:00,
2013-06-07 08:58:00,75.6,75.3,29.63,North,0,3.5,3.5,99,0.07,CLR,SKC,2.34,WeatherDisplay:10.37,2013-06-07 12:58:00,
2013-06-07 09:03:00,75.4,75.1,29.63,North,0,4.6,4.6,99,0.06,CLR,SKC,2.34,WeatherDisplay:10.37,2013-06-07 13:03:00,
2013-06-07 09:08:00,75.2,74.9,29.63,North,0,4.6,4.6,99,0.06,CLR,SKC,2.34,WeatherDisplay:10.37,2013-06-07 13:08:00,
2013-06-07 09:13:00,75.6,75.0,29.62,North,0,3.1,3.1,98,0.04,CLR,SKC,2.34,WeatherDisplay:10.37,2013-06-07 13:13:00,
2013-06-07 09:18:00,76.1,75.2,29.63,North,0,4.6,4.6,97,0.02,CLR,SKC,2.34,WeatherDisplay:10.37,2013-06-07 13:18:00,
2013-06-07 09:23:00,76.8,75.3,29.62,North,0,3.5,3.8,95,0.01,CLR,SKC,2.34,WeatherDisplay:10.37,2013-06-07 13:23:00,
2013-06-07 09:28:00,76.3,74.4,29.62,North,0,2.3,2.3,94,0.00,CLR,SKC,2.34,WeatherDisplay:10.37,2013-06-07 13:28:00,
2013-06-07 09:33:00,75.7,73.9,29.61,North,0,2.3,2.3,94,0.00,CLR,SKC,2.35,WeatherDisplay:10.37,2013-06-07 13:33:00,
2013-06-07 09:38:00,75.4,73.5,29.62,NW,315,1.1,0.0,94,0.05,RA,SKC,2.40,WeatherDisplay:10.37,2013-06-07 13:38:00,
2013-06-07 09:43:00,74.8,73.3,29.61,North,0,1.1,2.2,95,0.08,RA,SKC,2.42,WeatherDisplay:10.37,2013-06-07 13:43:00,
2013-06-07 09:48:00,74.7,73.4,29.61,North,0,4.6,4.6,96,0.09,RA,SKC,2.43,WeatherDisplay:10.37,2013-06-07 13:48:00,
2013-06-07 09:53:00,74.5,73.3,29.61,East,90,2.3,2.3,96,0.13,RA,SKC,2.47,WeatherDisplay:10.37,2013-06-07 13:53:00,
2013-06-07 09:58:00,74.3,73.1,29.60,NE,45,3.5,3.5,96,0.15,RA,SKC,2.49,WeatherDisplay:10.37,2013-06-07 13:58:00,
2013-06-07 10:03:00,74.1,73.2,29.61,East,90,1.1,1.1,97,0.19,RA,SKC,2.53,WeatherDisplay:10.37,2013-06-07 14:03:00,
2013-06-07 10:08:00,74.1,73.2,29.60,South,180,2.3,2.3,97,0.20,RA,SKC,2.54,WeatherDisplay:10.37,2013-06-07 14:08:00,
2013-06-07 10:13:00,73.8,72.9,29.60,North,0,6.9,6.9,97,0.22,RA,SKC,2.56,WeatherDisplay:10.37,2013-06-07 14:13:00,
2013-06-07 10:18:00,73.9,73.3,29.60,North,0,5.8,5.8,98,0.24,RA,SKC,2.57,WeatherDisplay:10.37,2013-06-07 14:18:00,
2013-06-07 10:23:00,73.9,73.3,29.60,WNW,292,12.7,12.7,98,0.25,RA,SKC,2.59,WeatherDisplay:10.37,2013-06-07 14:23:00,
2013-06-07 10:29:00,74.5,73.9,29.59,NW,315,9.2,9.2,98,0.26,RA,SKC,2.60,WeatherDisplay:10.37,2013-06-07 14:29:00,
2013-06-07 10:34:00,74.3,73.7,29.59,SW,225,15.0,15.0,98,0.26,RA,SKC,2.63,WeatherDisplay:10.37,2013-06-07 14:34:00,
2013-06-07 10:39:00,74.7,74.1,29.59,NW,315,8.1,8.1,98,0.24,RA,SKC,2.63,WeatherDisplay:10.37,2013-06-07 14:39:00,
2013-06-07 10:44:00,75.4,74.5,29.59,NNE,15,10.4,10.4,97,0.21,RA,SKC,2.63,WeatherDisplay:10.37,2013-06-07 14:44:00,
2013-06-07 10:49:00,76.1,75.2,29.59,West,270,10.4,10.4,97,0.20,CLR,SKC,2.63,WeatherDisplay:10.37,2013-06-07 14:49:00,
2013-06-07 10:54:00,76.6,75.4,29.59,WNW,292,9.2,9.2,96,0.17,CLR,SKC,2.63,WeatherDisplay:10.37,2013-06-07 14:54:00,
2013-06-07 10:59:00,77.5,75.7,29.59,NW,315,9.2,9.2,94,0.14,CLR,SKC,2.63,WeatherDisplay:10.37,2013-06-07 14:59:00,
2013-06-07 11:04:00,77.5,75.4,29.58,NNE,15,8.1,8.1,93,0.11,CLR,SKC,2.63,WeatherDisplay:10.37,2013-06-07 15:04:00,
2013-06-07 11:09:00,77.2,75.0,29.58,NW,315,5.8,5.8,93,0.08,CLR,SKC,2.63,WeatherDisplay:10.37,2013-06-07 15:09:00,
2013-06-07 11:14:00,77.2,75.0,29.58,NW,315,8.1,8.1,93,0.07,CLR,SKC,2.63,WeatherDisplay:10.37,2013-06-07 15:14:00,
2013-06-07 11:19:00,77.0,74.8,29.58,North,0,6.9,6.9,93,0.06,CLR,SKC,2.63,WeatherDisplay:10.37,2013-06-07 15:19:00,
2013-06-07 11:24:00,77.2,75.0,29.58,North,0,10.4,10.4,93,0.05,CLR,SKC,2.63,WeatherDisplay:10.37,2013-06-07 15:24:00,
2013-06-07 11:29:00,77.2,74.7,29.57,NW,315,10.4,10.4,92,0.04,CLR,SKC,2.63,WeatherDisplay:10.37,2013-06-07 15:29:00,
2013-06-07 11:34:00,77.2,74.7,29.57,North,0,9.2,9.2,92,0.02,CLR,SKC,2.63,WeatherDisplay:10.37,2013-06-07 15:34:00,
2013-06-07 11:39:00,76.5,74.3,29.57,NNW,338,8.1,8.1,93,0.00,CLR,SKC,2.65,WeatherDisplay:10.37,2013-06-07 15:39:00,
2013-06-07 11:44:00,75.6,73.4,29.57,North,0,9.2,9.2,93,0.04,RA,SKC,2.68,WeatherDisplay:10.37,2013-06-07 15:44:00,
2013-06-07 11:49:00,75.0,73.5,29.56,North,0,5.8,5.8,95,0.07,RA,SKC,2.70,WeatherDisplay:10.37,2013-06-07 15:49:00,
2013-06-07 11:54:00,75.0,73.8,29.56,North,0,5.8,5.8,96,0.08,RA,SKC,2.72,WeatherDisplay:10.37,2013-06-07 15:54:00,
2013-06-07 11:59:00,75.0,73.8,29.56,WNW,292,6.9,6.9,96,0.09,RA,SKC,2.73,WeatherDisplay:10.37,2013-06-07 15:59:00,
2013-06-07 12:04:00,75.2,74.0,29.55,NW,315,5.8,5.8,96,0.11,RA,SKC,2.74,WeatherDisplay:10.37,2013-06-07 16:04:00,
2013-06-07 12:09:00,75.6,74.3,29.55,NW,315,6.9,6.9,96,0.11,RA,SKC,2.74,WeatherDisplay:10.37,2013-06-07 16:09:00,
2013-06-07 12:14:00,75.9,74.7,29.55,NW,315,6.9,6.9,96,0.11,,SKC,2.74,WeatherDisplay:10.37,2013-06-07 16:14:00,
2013-06-07 12:19:00,76.8,75.6,29.55,North,0,10.4,10.4,96,0.11,CLR,SKC,2.74,WeatherDisplay:10.37,2013-06-07 16:19:00,
2013-06-07 12:24:00,77.7,75.9,29.55,NW,315,10.4,10.4,94,0.11,CLR,SKC,2.74,WeatherDisplay:10.37,2013-06-07 16:24:00,
2013-06-07 12:29:00,77.5,75.4,29.55,WNW,292,8.1,8.1,93,0.11,CLR,SKC,2.74,WeatherDisplay:10.37,2013-06-07 16:29:00,
2013-06-07 12:34:00,77.7,75.5,29.54,North,0,10.4,10.4,93,0.11,CLR,SKC,2.74,WeatherDisplay:10.37,2013-06-07 16:34:00,
2013-06-07 12:39:00,78.8,75.9,29.54,WNW,292,12.7,12.7,91,0.11,CLR,SKC,2.74,WeatherDisplay:10.37,2013-06-07 16:39:00,
2013-06-07 12:44:00,79.3,75.8,29.53,North,0,12.7,12.7,89,0.07,CLR,SKC,2.74,WeatherDisplay:10.37,2013-06-07 16:44:00,
2013-06-07 12:49:00,79.3,75.1,29.53,North,0,12.7,12.7,87,0.04,CLR,SKC,2.74,WeatherDisplay:10.37,2013-06-07 16:49:00,
2013-06-07 12:54:00,79.2,75.3,29.53,North,0,8.1,9.2,88,0.02,CLR,SKC,2.74,WeatherDisplay:10.37,2013-06-07 16:54:00,
2013-06-07 12:59:00,78.6,74.8,29.52,North,0,10.4,10.4,88,0.01,CLR,SKC,2.74,WeatherDisplay:10.37,2013-06-07 16:59:00,
2013-06-07 13:04:00,79.2,76.0,29.52,NW,315,6.9,6.9,90,0.00,CLR,SKC,2.74,WeatherDisplay:10.37,2013-06-07 17:04:00,
2013-06-07 13:09:00,80.4,76.9,29.51,NW,315,9.2,9.2,89,0.00,CLR,SKC,2.74,WeatherDisplay:10.37,2013-06-07 17:09:00,
2013-06-07 13:14:00,81.0,76.4,29.51,North,0,9.2,9.2,86,0.00,CLR,SKC,2.74,WeatherDisplay:10.37,2013-06-07 17:14:00,
2013-06-07 13:19:00,80.8,75.8,29.50,NNW,338,8.1,8.1,85,0.00,CLR,SKC,2.74,WeatherDisplay:10.37,2013-06-07 17:19:00,
2013-06-07 13:24:00,80.8,75.5,29.50,North,0,10.4,10.4,84,0.00,CLR,SKC,2.74,WeatherDisplay:10.37,2013-06-07 17:24:00,
2013-06-07 13:29:00,79.7,74.8,29.50,NW,315,10.4,10.4,85,0.00,CLR,SKC,2.74,WeatherDisplay:10.37,2013-06-07 17:29:00,
2013-06-07 13:34:00,80.1,75.1,29.49,North,0,11.5,11.5,85,0.00,CLR,SKC,2.74,WeatherDisplay:10.37,2013-06-07 17:34:00,
2013-06-07 13:39:00,80.6,75.3,29.49,NW,315,9.2,9.2,84,0.00,CLR,SKC,2.74,WeatherDisplay:10.37,2013-06-07 17:39:00,
2013-06-07 13:44:00,80.6,75.3,29.49,WNW,292,8.1,8.1,84,0.00,CLR,SKC,2.74,WeatherDisplay:10.37,2013-06-07 17:44:00,
2013-06-07 13:49:00,80.4,75.1,29.48,NW,315,13.8,13.8,84,0.00,CLR,SKC,2.74,WeatherDisplay:10.37,2013-06-07 17:49:00,
2013-06-07 13:54:00,80.6,74.6,29.48,North,0,12.7,12.7,82,0.00,CLR,SKC,2.74,WeatherDisplay:10.37,2013-06-07 17:54:00,
2013-06-07 13:59:00,81.3,75.3,29.48,North,0,5.8,7.6,82,0.00,CLR,SKC,2.74,WeatherDisplay:10.37,2013-06-07 17:59:00,
2013-06-07 14:04:00,80.8,74.4,29.48,North,0,8.1,8.1,81,0.00,CLR,SKC,2.74,WeatherDisplay:10.37,2013-06-07 18:04:00,
2013-06-07 14:09:00,79.9,74.6,29.47,North,0,9.2,9.2,84,0.00,CLR,SKC,2.74,WeatherDisplay:10.37,2013-06-07 18:09:00,
2013-06-07 14:14:00,79.0,73.8,29.47,North,357,8.0,15.0,84,0.00,CLR,SKC,2.74,WeatherDisplay:10.37,2013-06-07 18:14:00,
2013-06-07 14:22:00,78.8,74.3,29.47,NW,315,10.4,10.4,86,0.00,CLR,SKC,2.74,WeatherDisplay:10.37,2013-06-07 18:22:00,
2013-06-07 14:27:00,78.6,74.1,29.47,North,0,10.4,10.4,86,0.00,CLR,SKC,2.74,WeatherDisplay:10.37,2013-06-07 18:27:00,
2013-06-07 14:32:00,78.3,74.1,29.47,North,0,10.4,10.4,87,0.00,CLR,SKC,2.74,WeatherDisplay:10.37,2013-06-07 18:32:00,
2013-06-07 14:38:00,77.5,74.0,29.47,North,0,8.1,8.1,89,0.00,CLR,SKC,2.74,WeatherDisplay:10.37,2013-06-07 18:38:00,
2013-06-07 14:44:00,77.4,74.2,29.46,North,0,6.9,6.9,90,0.00,CLR,SKC,2.74,WeatherDisplay:10.37,2013-06-07 18:44:00,
2013-06-07 14:49:00,77.2,74.0,29.46,WNW,292,9.2,9.2,90,0.00,CLR,SKC,2.74,WeatherDisplay:10.37,2013-06-07 18:49:00,
2013-06-07 14:54:00,77.0,73.2,29.46,North,0,15.0,15.0,88,0.00,CLR,SKC,2.74,WeatherDisplay:10.37,2013-06-07 18:54:00,
2013-06-07 14:59:00,76.8,73.3,29.45,NNE,16,10.4,10.4,89,0.00,CLR,SKC,2.74,WeatherDisplay:10.37,2013-06-07 18:59:00,
2013-06-07 15:04:00,76.8,73.3,29.45,NNW,338,5.8,5.8,89,0.00,CLR,SKC,2.74,WeatherDisplay:10.37,2013-06-07 19:04:00,
2013-06-07 15:09:00,76.6,73.8,29.45,NNE,22,4.6,4.6,91,0.00,CLR,SKC,2.74,WeatherDisplay:10.37,2013-06-07 19:09:00,
2013-06-07 15:14:00,76.3,73.8,29.46,NNE,14,5.8,5.8,92,0.00,CLR,SKC,2.74,WeatherDisplay:10.37,2013-06-07 19:14:00,
2013-06-07 15:19:00,76.3,73.8,29.46,North,0,5.8,5.8,92,0.00,CLR,SKC,2.74,WeatherDisplay:10.37,2013-06-07 19:19:00,
2013-06-07 15:24:00,75.4,73.2,29.46,NW,315,28.8,28.8,93,0.14,RA,SKC,2.92,WeatherDisplay:10.37,2013-06-07 19:24:00,
2013-06-07 15:29:00,73.2,71.1,29.44,NW,315,19.6,19.6,93,0.33,RA,SKC,3.08,WeatherDisplay:10.37,2013-06-07 19:29:00,
2013-06-07 15:35:00,73.0,71.5,29.42,SSW,202,13.8,13.8,95,0.39,RA,SKC,3.14,WeatherDisplay:10.37,2013-06-07 19:35:00,
2013-06-07 15:40:00,71.6,70.1,29.44,South,180,33.4,33.4,95,0.53,RA,SKC,3.27,WeatherDisplay:10.37,2013-06-07 19:40:00,
2013-06-07 15:45:00,71.6,70.1,29.42,South,180,26.5,26.5,95,0.77,RA,SKC,3.59,WeatherDisplay:10.37,2013-06-07 19:45:00,
2013-06-07 15:50:00,71.4,69.9,29.42,WSW,248,27.6,27.6,95,0.98,RA,SKC,3.72,WeatherDisplay:10.37,2013-06-07 19:50:00,
2013-06-07 15:55:00,71.4,69.9,29.43,SW,225,23.0,23.0,95,1.06,RA,SKC,3.80,WeatherDisplay:10.37,2013-06-07 19:55:00,
2013-06-07 16:00:00,71.6,69.8,29.44,SW,225,25.3,25.3,94,1.15,RA,SKC,3.89,WeatherDisplay:10.37,2013-06-07 20:00:00,
2013-06-07 16:05:00,71.1,69.2,29.46,West,270,17.3,17.3,94,1.15,RA,SKC,3.89,WeatherDisplay:10.37,2013-06-07 20:05:00,
2013-06-07 16:10:00,70.7,68.9,29.47,West,270,8.1,8.1,94,1.15,,SKC,3.89,WeatherDisplay:10.37,2013-06-07 20:10:00,
2013-06-07 16:15:00,70.9,68.8,29.49,West,270,10.4,10.4,93,1.15,CLR,SKC,3.89,WeatherDisplay:10.37,2013-06-07 20:15:00,
2013-06-07 16:22:00,71.2,69.4,29.52,SW,225,5.8,5.8,94,1.12,CLR,SKC,3.89,WeatherDisplay:10.37,2013-06-07 20:22:00,
2013-06-07 16:27:00,71.4,69.9,29.51,WNW,292,8.1,8.1,95,0.85,CLR,SKC,3.89,WeatherDisplay:10.37,2013-06-07 20:27:00,
2013-06-07 16:33:00,72.0,70.1,29.51,SW,225,13.8,13.8,94,0.78,CLR,SKC,3.89,WeatherDisplay:10.37,2013-06-07 20:33:00,
2013-06-07 16:38:00,72.5,71.0,29.52,South,180,10.4,10.4,95,0.66,CLR,SKC,3.89,WeatherDisplay:10.37,2013-06-07 20:38:00,
2013-06-07 16:43:00,72.9,71.3,29.53,SW,225,8.1,8.1,95,0.39,CLR,SKC,3.89,WeatherDisplay:10.37,2013-06-07 20:43:00,
2013-06-07 16:48:00,73.6,72.4,29.53,SW,225,9.2,9.2,96,0.17,CLR,SKC,3.89,WeatherDisplay:10.37,2013-06-07 20:48:00,
2013-06-07 16:54:00,74.1,72.6,29.54,SW,225,9.2,9.2,95,0.12,CLR,SKC,3.89,WeatherDisplay:10.37,2013-06-07 20:54:00,
2013-06-07 16:59:00,73.9,72.4,29.55,West,270,4.6,4.6,95,0.00,CLR,SKC,3.89,WeatherDisplay:10.37,2013-06-07 20:59:00,
2013-06-07 17:04:00,73.9,72.1,29.55,NW,315,10.4,10.4,94,0.00,CLR,SKC,3.89,WeatherDisplay:10.37,2013-06-07 21:04:00,
2013-06-07 17:10:00,74.1,72.0,29.56,NW,315,9.2,9.2,93,0.00,CLR,SKC,3.89,WeatherDisplay:10.37,2013-06-07 21:10:00,
2013-06-07 17:15:00,73.8,71.3,29.56,SW,225,5.8,5.8,92,0.00,CLR,SKC,3.89,WeatherDisplay:10.37,2013-06-07 21:15:00,
2013-06-07 21:03:00,71.8,69.3,29.74,West,270,2.3,0.0,92,0.00,CLR,SKC,3.89,WeatherDisplay:10.37,2013-06-08 01:03:00,
2013-06-07 21:13:00,71.4,69.3,29.75,NE,45,1.1,1.1,93,0.00,CLR,SKC,3.89,WeatherDisplay:10.37,2013-06-08 01:13:00,
2013-06-07 22:07:00,71.4,69.6,29.79,East,90,1.1,0.0,94,0.00,CLR,SKC,3.89,WeatherDisplay:10.37,2013-06-08 02:07:00,
2013-06-07 22:53:00,71.8,70.0,29.80,WNW,292,4.6,4.6,94,0.05,RA,SKC,3.93,WeatherDisplay:10.37,2013-06-08 02:53:00,